Location: ??????
(41.3747°N, 22.5491°E)
Time: 03:57:45
(UTC+00:00)

H-2A R/B - Pass Details

Date: 01 December 2020
Orbit: 733 x 836 km, 98.2° (Epoch: 20 January)

Event Time Altitude Azimuth Distance (km) Brightness Sun altitude
Rises 17:26:22 0° 166° (SSE) 3,325 5.2 -26.6°
Enters shadow 17:28:13 - 167° (SSE) 2,584 4.7 -27.0°
Exits shadow 17:35:28 49° 342° (NNW) 1,010 2.6 -28.3°
Drops below altitude 10° 17:39:11 10° 346° (NNW) 2,333 4.6 -29.0°
Sets 17:41:28 0° 347° (NNW) 3,249 5.4 -29.5°
